1535248800.88,52326,18.75,73644.3,5.09,4.27,4.27,0,*71
1535248802.09,52327,18.75,73642.3,5.09,4.27,4.33,0,*75
1535248803.29,52328,18.75,73644.3,5.09,4.33,4.33,0,*7F
1535248804.47,52329,18.75,73646.3,5.07,4.33,4.33,0,*70
1535248805.68,52330,18.75,73644.3,5.09,4.27,4.33,0,*73
1535248806.88,52331,18.75,73648.3,5.09,4.33,4.27,0,*72
1535248808.09,52332,18.75,73650.0,5.09,4.27,4.33,0,*71
1535248809.29,52333,18.75,73646.5,5.09,4.33,4.33,0,*75
1535248810.5,52334,18.75,73646.5,5.09,4.33,4.33,0,*72
1535248811.73,52335,18.75,73650.8,5.03,4.31,4.31,0,*79
1535248812.92,52336,18.75,73650.0,5.07,4.33,4.37,0,*7A
1535248814.13,52337,18.75,73650.0,5.09,4.37,4.37,0,*71
1535248815.32,52338,18.75,73654.3,5.07,4.37,4.37,0,*70
1535248816.53,52339,18.75,73650.3,5.09,4.37,4.37,0,*7F
1535248817.71,52340,18.75,73650.8,5.07,4.37,4.37,0,*7F
1535248818.9,52341,18.75,73644.8,5.07,4.37,4.41,0,*7F
1535248820.11,52342,18.75,73640.5,5.09,4.37,4.37,0,*73
1535248821.3,52343,18.75,73646.5,5.07,4.37,4.41,0,*7D
1535248822.49,52344,18.75,73644.8,5.07,4.37,4.41,0,*7A
1535248823.67,52345,18.75,73646.5,5.07,4.41,4.41,0,*7A
1535248824.85,52346,18.75,73646.5,5.07,4.41,4.41,0,*79
1535248826.06,52347,18.75,73650.0,5.09,4.37,4.41,0,*77
1535248827.27,52348,18.75,73650.0,5.09,4.37,4.41,0,*78
1535248828.48,52349,18.75,73650.5,5.09,4.37,4.41,0,*79
1535248829.67,52350,18.75,73644.8,5.07,4.37,4.37,0,*7E
1535248830.88,52351,18.75,73644.5,5.09,4.37,4.41,0,*70
1535248832.06,52352,18.75,73644.3,5.07,4.37,4.41,0,*7D
1535248833.24,52353,18.75,73646.8,5.07,4.41,4.41,0,*7D
1535248834.45,52354,18.75,73646.3,5.09,4.41,4.37,0,*75
1535248835.66,52355,18.75,73646.0,5.09,4.37,4.37,0,*75
1535248836.87,52356,18.75,73646.3,5.09,4.37,4.37,0,*76
1535248838.06,52357,18.75,73642.5,5.07,4.37,4.37,0,*79
1535248839.24,52358,18.75,73642.5,5.07,4.37,4.41,0,*77
1535248840.43,52359,18.75,73646.5,5.07,4.41,4.41,0,*77
1535248841.61,52360,18.75,73644.5,5.07,4.37,4.37,0,*7D
1535248842.8,52361,18.75,73648.3,5.07,4.37,4.37,0,*7C
1535248844.0,52362,18.75,73642.5,5.09,4.41,4.41,0,*71
1535248845.21,52363,18.75,73646.0,5.09,4.41,4.41,0,*70
1535248846.42,52364,18.75,73646.3,5.09,4.37,4.37,0,*77
1535248847.62,52365,18.75,73646.3,5.09,4.41,4.37,0,*77
1535248848.84,52366,18.75,73646.3,5.09,4.37,4.41,0,*74
1535248850.04,52367,18.75,73650.8,5.09,4.41,4.37,0,*75
1535248851.25,52368,18.75,73644.5,5.09,4.37,4.37,0,*7B
1535248852.45,52369,18.75,73646.8,5.09,4.41,4.41,0,*7A
1535248853.67,52370,18.75,73648.5,5.09,4.37,4.37,0,*72
1535248854.88,52371,18.75,73646.8,5.09,4.37,4.41,0,*72
1535248856.08,52372,18.75,73644.3,5.09,4.41,4.37,0,*71
1535248857.29,52373,18.75,73644.5,5.09,4.37,4.37,0,*71
1535248858.5,52374,18.75,73646.8,5.09,4.37,4.37,0,*76
1535248859.71,52375,18.75,73646.8,5.09,4.37,4.41,0,*76
1535248860.92,52376,18.75,73646.5,5.09,4.37,4.37,0,*74
1535248862.1,52377,18.75,73644.3,5.07,4.41,4.41,0,*7B
1535248863.31,52378,18.75,73648.0,5.09,4.41,4.41,0,*7A
1535248864.52,52379,18.75,73650.8,5.09,4.37,4.41,0,*7A
1535248865.7,52380,18.75,73648.8,5.07,4.41,4.41,0,*73
1535248866.9,52381,18.75,73650.8,5.09,4.41,4.41,0,*7C
1535248868.11,52382,18.75,73650.3,5.09,4.41,4.37,0,*7E
1535248869.31,52383,18.75,73652.8,5.09,4.41,4.37,0,*7F
1535248870.53,52384,18.75,73648.5,5.09,4.37,4.37,0,*79
1535248871.74,52385,18.75,73648.8,5.09,4.37,4.41,0,*79
1535248872.94,52386,18.75,73646.8,5.09,4.41,4.37,0,*7A
1535248874.15,52387,18.75,73650.5,5.09,4.37,4.41,0,*7B
1535248875.36,52388,18.75,73648.5,5.09,4.37,4.41,0,*74
1535248876.57,52389,18.75,73648.8,5.09,4.37,4.41,0,*75
1535248877.78,52390,18.75,73650.3,5.09,4.37,4.41,0,*7D
1535248878.99,52391,18.75,73648.0,5.09,4.37,4.41,0,*7C
1535248880.2,52392,18.75,73654.3,5.09,4.37,4.37,0,*7E
1535248881.41,52393,18.75,73646.3,5.09,4.37,4.37,0,*7F
1535248882.62,52394,18.75,73644.5,5.09,4.37,4.37,0,*78
1535248883.81,52395,18.75,73650.8,5.07,4.37,4.41,0,*76
1535248885.02,52396,18.75,73648.8,5.09,4.37,4.37,0,*7A
1535248886.23,52397,18.75,73650.5,5.09,4.37,4.37,0,*7B
1535248887.44,52398,18.75,73650.8,5.09,4.41,4.41,0,*74
1535248888.65,52399,18.75,73650.0,5.09,4.37,4.41,0,*74
1535248889.85,52400,18.75,73652.0,5.09,4.41,4.37,0,*73
1535248891.06,52401,18.75,73650.5,5.09,4.37,4.41,0,*72
1535248892.27,52402,18.75,73654.5,5.09,4.41,4.41,0,*70
1535248893.47,52403,18.75,73650.8,5.09,4.41,4.41,0,*71
1535248894.65,52404,18.75,73656.3,5.07,4.49,4.41,0,*70
1535248895.82,52405,18.75,73654.5,5.11,4.41,4.45,0,*7A
1535248897.0,52406,18.75,73648.8,5.11,4.41,4.45,0,*79
1535248898.19,52407,18.75,73652.3,5.07,4.37,4.41,0,*7A
1535248899.39,52408,18.75,73652.0,5.09,4.41,4.37,0,*7B
1535248900.58,52409,18.75,73648.3,5.07,4.37,4.37,0,*75
1535248901.79,52410,18.75,73648.8,5.09,4.37,4.37,0,*73
1535248903.0,52411,18.75,73652.8,5.09,4.37,4.41,0,*73
1535248904.21,52412,18.75,73654.8,5.09,4.37,4.41,0,*70
1535248905.42,52413,18.75,73654.5,5.09,4.37,4.37,0,*70
1535248906.61,52414,18.75,73652.5,5.07,4.37,4.37,0,*79
1535248907.81,52415,18.75,73652.5,5.09,4.41,4.37,0,*77
1535248908.99,52416,18.75,73652.3,5.07,4.41,4.37,0,*7A
1535248910.21,52417,18.75,73652.8,5.09,4.37,4.41,0,*75
1535248911.41,52418,18.75,73650.0,5.09,4.37,4.33,0,*7F
1535248912.62,52419,18.75,73654.8,5.09,4.37,4.33,0,*7E
1535248913.83,52420,18.75,73656.3,5.09,4.33,4.33,0,*70
1535248915.04,52421,18.75,73650.3,5.09,4.33,4.33,0,*71
1535248916.24,52422,18.75,73652.0,5.09,4.15,4.15,0,*72
1535248917.5,52423,18.75,73652.8,5.09,4.05,4.05,0,*73
1535248918.67,52424,18.75,73654.5,5.07,4.15,4.15,0,*7A
1535248919.85,52425,18.75,73648.8,5.07,4.27,4.23,0,*7F
1535248921.04,52426,18.75,73648.8,5.07,4.27,4.33,0,*7D
1535248922.21,52427,18.75,73644.0,5.07,4.27,4.15,0,*78
1535248923.39,52428,18.75,73644.0,5.07,4.15,4.15,0,*76
1535248924.57,52429,18.75,73644.3,5.07,4.23,4.15,0,*72
1535248925.75,52430,18.75,73646.0,5.07,4.23,4.23,0,*7F
1535248926.92,52431,18.75,73644.3,5.07,4.23,4.23,0,*7E
1535248928.09,52432,18.75,73650.0,5.03,4.19,4.19,0,*79
1535248929.28,52433,18.75,73644.8,5.03,4.07,4.07,0,*78
1535248930.51,52434,18.75,73650.3,5.07,4.05,4.01,0,*7F
1535248931.74,52435,18.75,73646.0,5.07,4.05,4.05,0,*7A
1535248932.97,52436,18.75,73644.3,5.01,4.11,4.01,0,*7E
1535248934.15,52437,18.75,73652.3,5.03,4.07,4.11,0,*7B
1535248935.32,52438,18.75,73652.0,5.03,4.07,4.11,0,*74
1535248936.5,52439,18.75,73646.8,5.03,4.19,4.11,0,*7A
1535248937.67,52440,18.75,73644.8,5.03,4.19,4.19,0,*7C
1535248938.87,52441,18.75,73642.3,5.01,4.19,4.19,0,*7F
1535248940.06,52442,18.75,73642.0,5.01,4.19,4.19,0,*7C
1535248941.24,52443,18.75,73640.5,5.03,4.19,4.23,0,*76
1535248942.43,52444,18.75,73646.8,5.01,4.19,4.11,0,*72
1535248943.63,52445,18.75,73646.5,5.01,4.19,4.19,0,*7B
1535248944.8,52446,18.75,73650.0,5.03,4.19,4.19,0,*7A
1535248946.01,52447,18.75,73646.3,5.03,4.31,4.23,0,*78
1535248947.21,52448,18.75,73648.8,5.01,4.23,4.23,0,*76
1535248948.47,52449,18.75,73644.5,5.01,4.31,4.31,0,*77
1535248949.72,52450,18.75,73642.5,5.01,4.31,4.31,0,*7F
1535248950.98,52451,18.75,73648.5,5.01,4.31,4.31,0,*7E
1535248952.24,52452,18.75,73646.0,5.01,4.31,4.31,0,*7D
1535248953.44,52453,18.75,73644.0,5.01,4.23,4.23,0,*7C
1535248954.64,52454,18.75,73646.0,5.01,4.19,4.23,0,*72
1535248955.87,52455,18.75,73650.5,5.01,4.23,4.31,0,*79
1535248957.09,52456,18.75,73644.8,5.01,4.31,4.23,0,*7A
1535248958.27,52457,18.75,73646.0,5.03,4.23,4.23,0,*7A
1535248959.47,52458,18.75,73640.3,5.01,4.23,4.23,0,*77
1535248960.67,52459,18.75,73642.5,5.01,4.23,4.23,0,*76
1535248961.9,52460,18.75,73638.8,5.01,4.23,4.31,0,*7F
1535248963.16,52461,18.75,73644.0,5.01,4.31,4.31,0,*7D
1535248964.42,52462,18.75,73648.5,5.01,4.31,4.31,0,*7E
1535248965.67,52463,18.75,73646.8,5.01,4.31,4.31,0,*7F
1535248966.9,52464,18.75,73640.8,5.01,4.23,4.31,0,*7B
1535248968.1,52465,18.75,73642.5,5.01,4.23,4.23,0,*79
1535248969.3,52466,18.75,73646.0,5.01,4.23,4.23,0,*7A
1535248970.5,52467,18.75,73646.8,5.01,4.19,4.23,0,*72
1535248971.7,52468,18.75,73642.0,5.01,4.19,4.19,0,*74
1535248972.89,52469,18.75,73644.8,5.01,4.19,4.19,0,*75
1535248974.09,52470,18.75,73642.3,5.01,4.19,4.11,0,*75
1535248975.34,52471,18.75,73644.3,5.01,4.01,4.01,0,*7C
1535248976.54,52472,18.75,73644.5,5.01,4.07,4.19,0,*70
1535248977.73,52473,18.75,73642.5,5.01,4.19,4.19,0,*7E
1535248978.93,52474,18.75,73644.5,5.01,4.23,4.23,0,*79
1535248980.13,52475,18.75,73646.0,5.01,4.23,4.23,0,*78
1535248981.31,52476,18.75,73650.8,4.99,4.19,4.27,0,*76
1535248982.51,52477,18.75,73652.3,4.99,4.31,4.27,0,*7D
1535248983.72,52478,18.75,73650.8,4.99,4.31,4.27,0,*72
1535248984.93,52479,18.75,73650.5,4.99,4.27,4.31,0,*73
1535248986.14,52480,18.75,73650.5,4.99,4.27,4.31,0,*75
1535248987.38,52481,18.75,73648.8,4.99,4.31,4.31,0,*73
1535248988.61,52482,18.75,73650.8,4.99,4.31,4.31,0,*70
1535248989.85,52483,18.75,73654.0,4.99,4.31,4.31,0,*71
1535248991.03,52484,18.75,73650.0,4.99,4.27,4.27,0,*76
1535248992.23,52485,18.75,73648.3,4.97,4.15,4.15,0,*79
1535248993.41,52486,18.75,73650.5,4.99,4.19,4.27,0,*79
1535248994.59,52487,18.75,73648.3,4.99,4.27,4.19,0,*78
1535248995.77,52488,18.75,73648.8,4.99,4.15,4.19,0,*76
1535248996.97,52489,18.75,73650.3,4.97,4.11,4.23,0,*74
1535248998.17,52490,18.75,73650.8,4.97,4.15,4.15,0,*7D
1535248999.35,52491,18.75,73652.3,4.99,4.19,4.19,0,*72
1535249000.52,52492,18.75,73646.8,4.99,4.19,4.27,0,*7C
1535249001.7,52493,18.75,73646.3,4.99,4.19,4.19,0,*70
1535249002.87,52494,18.75,73648.3,4.99,4.19,4.19,0,*77
1535249004.05,52495,18.75,73646.0,4.99,4.19,4.19,0,*76
1535249005.23,52496,18.75,73646.0,4.99,4.15,4.19,0,*79
1535249006.43,52497,18.75,73646.5,4.97,4.23,4.23,0,*7A
1535249007.61,52498,18.75,73644.0,4.99,4.27,4.27,0,*7B
1535249008.81,52499,18.75,73644.3,4.97,4.23,4.23,0,*74
1535249009.98,52500,18.75,73646.3,4.99,4.19,4.27,0,*76
1535249011.19,52501,18.75,73646.3,4.97,4.15,4.15,0,*74
1535249012.39,52502,18.75,73642.0,4.97,4.23,4.23,0,*77
1535249013.59,52503,18.75,73640.8,4.97,4.23,4.23,0,*76
1535249014.79,52504,18.75,73644.8,4.97,4.23,4.23,0,*71
1535249015.97,52505,18.75,73644.3,4.99,4.27,4.27,0,*7E
1535249017.17,52506,18.75,73650.3,4.97,4.23,4.23,0,*73
1535249018.35,52507,18.75,73650.8,4.99,4.27,4.27,0,*7C
1535249019.55,52508,18.75,73644.3,4.97,4.15,4.23,0,*78
1535249020.73,52509,18.75,73650.8,4.99,4.23,4.15,0,*77
1535249021.93,52510,18.75,73648.5,4.97,4.15,4.15,0,*74
1535249023.13,52511,18.75,73644.8,4.97,4.15,4.15,0,*75
1535249024.31,52512,18.75,73644.0,4.99,4.15,4.19,0,*74
1535249025.51,52513,18.75,73648.8,4.97,4.23,4.23,0,*77
1535249026.69,52514,18.75,73650.5,4.99,4.27,4.27,0,*7E
1535249027.87,52515,18.75,73646.3,4.99,4.27,4.27,0,*7F
1535249029.07,52516,18.75,73654.5,4.97,4.27,4.23,0,*76
1535249030.28,52517,18.75,73650.5,4.97,4.27,4.23,0,*77
1535249031.48,52518,18.75,73648.8,4.97,4.27,4.27,0,*7C
1535249032.68,52519,18.75,73648.8,4.97,4.27,4.27,0,*7D
1535249033.87,52520,18.75,73644.3,4.97,4.15,4.27,0,*76
1535249035.08,52521,18.75,73644.0,4.97,4.15,4.23,0,*73
1535249036.28,52522,18.75,73644.5,4.97,4.23,4.15,0,*70
1535249037.48,52523,18.75,73650.5,4.97,4.23,4.15,0,*71
1535249038.65,52524,18.75,73648.5,4.99,4.19,4.27,0,*70
1535249039.83,52525,18.75,73650.5,4.99,4.27,4.27,0,*7C
1535249041.03,52526,18.75,73648.5,4.97,4.23,4.23,0,*71
1535249042.23,52527,18.75,73648.5,4.97,4.23,4.23,0,*70
1535249043.46,52528,18.75,73652.8,4.97,4.23,4.31,0,*7C
1535249044.7,52529,18.75,73652.3,4.99,4.31,4.31,0,*70
1535249045.96,52530,18.75,73650.3,4.97,4.31,4.31,0,*76
1535249047.17,52531,18.75,73646.0,4.99,4.31,4.33,0,*7B
1535249048.43,52532,18.75,73650.0,4.97,4.31,4.31,0,*74
1535249049.64,52533,18.75,73646.3,4.99,4.31,4.33,0,*79
1535249050.88,52534,18.75,73644.3,4.99,4.31,4.31,0,*7C
1535249052.08,52535,18.75,73646.0,4.97,4.23,4.27,0,*77
1535249053.27,52536,18.75,73644.8,4.97,4.23,4.27,0,*74
1535249054.47,52537,18.75,73640.3,4.97,4.23,4.27,0,*75
1535249055.65,52538,18.75,73640.0,4.99,4.27,4.19,0,*7D
1535249056.85,52539,18.75,73640.8,4.97,4.15,4.23,0,*7A
1535249058.05,52540,18.75,73638.0,4.97,4.23,4.23,0,*71
1535249059.25,52541,18.75,73640.5,4.97,4.23,4.23,0,*70
1535249060.45,52542,18.75,73644.0,4.97,4.23,4.23,0,*73
1535249061.65,52543,18.75,73642.0,4.97,4.23,4.23,0,*72
1535249062.85,52544,18.75,73640.5,4.97,4.23,4.27,0,*71
1535249064.05,52545,18.75,73644.3,4.97,4.23,4.27,0,*70
1535249065.25,52546,18.75,73640.5,4.97,4.23,4.27,0,*73
1535249066.47,52547,18.75,73642.3,4.97,4.31,4.27,0,*71
1535249067.7,52548,18.75,73640.3,4.97,4.31,4.27,0,*7E
1535249068.91,52549,18.75,73640.5,4.99,4.31,4.33,0,*74
1535249070.11,52550,18.75,73640.3,4.97,4.27,4.27,0,*70
1535249071.31,52551,18.75,73642.3,4.97,4.27,4.27,0,*71
1535249072.51,52552,18.75,73642.8,4.97,4.27,4.27,0,*72
1535249073.71,52553,18.75,73640.3,4.97,4.27,4.27,0,*73
1535249074.91,52554,18.75,73636.0,4.97,4.23,4.15,0,*71
1535249076.09,52555,18.75,73640.0,4.99,4.19,4.23,0,*72
1535249077.29,52556,18.75,73640.3,4.97,4.15,4.15,0,*76
1535249078.49,52557,18.75,73638.8,4.97,4.15,4.15,0,*77
1535249079.7,52558,18.75,73638.8,4.97,4.15,4.15,0,*78
1535249080.9,52559,18.75,73638.8,4.97,4.11,4.15,0,*7D
1535249082.1,52560,18.75,73632.3,4.97,4.15,4.23,0,*76
1535249083.3,52561,18.75,73638.8,4.97,4.23,4.15,0,*77
1535249084.5,52562,18.75,73642.0,4.97,4.23,4.15,0,*74
1535249085.76,52563,18.75,73640.3,4.97,4.05,4.05,0,*70
1535249086.94,52564,18.75,73640.0,4.95,4.11,4.11,0,*75
1535249088.12,52565,18.75,73640.3,4.95,4.11,4.15,0,*70
1535249089.33,52566,18.75,73640.5,4.95,4.05,4.11,0,*72
1535249090.51,52567,18.75,73640.0,4.95,4.15,4.15,0,*76
1535249091.72,52568,18.75,73642.8,4.95,4.05,4.15,0,*78
1535249092.9,52569,18.75,73638.5,4.95,4.11,4.15,0,*7C
1535249094.11,52570,18.75,73644.0,4.93,4.11,4.19,0,*7E
1535249095.31,52571,18.75,73640.8,4.93,4.11,4.11,0,*77
1535249096.5,52572,18.75,73640.3,4.95,4.15,4.15,0,*72
1535249097.68,52573,18.75,73640.5,4.95,4.23,4.15,0,*76
1535249098.91,52574,18.75,73642.3,4.93,4.11,4.01,0,*73
1535249100.12,52575,18.75,73642.5,4.93,4.07,4.11,0,*74
1535249101.3,52576,18.75,73640.5,4.95,4.11,4.11,0,*76
1535249102.53,52577,18.75,73642.5,4.93,4.07,4.01,0,*77
1535249103.78,52578,18.75,73642.0,4.93,3.97,3.97,0,*7E
1535249105.01,52579,18.75,73640.8,4.95,4.01,4.01,0,*79
1535249106.26,52580,18.75,73638.3,4.93,4.01,3.97,0,*71
1535249107.48,52581,18.75,73640.8,4.95,4.11,4.05,0,*7B
1535249108.73,52582,18.75,73638.8,4.93,3.97,4.01,0,*73
1535249109.98,52583,18.75,73642.5,4.93,4.01,4.01,0,*7A
1535249111.21,52584,18.75,73640.5,4.93,4.01,4.07,0,*7B
1535249112.42,52585,18.75,73638.0,4.91,4.07,4.07,0,*7E
1535249113.67,52586,18.75,73638.3,4.93,4.01,4.01,0,*7F
1535249114.9,52587,18.75,73640.8,4.91,4.07,4.01,0,*7A
1535249116.14,52588,18.75,73642.3,4.91,4.01,4.01,0,*73
1535249117.39,52589,18.75,73644.3,4.91,4.01,4.01,0,*72
1535249118.63,52590,18.75,73640.8,4.91,4.01,3.97,0,*72
1535249119.86,52591,18.75,73642.3,4.91,4.07,4.01,0,*7D
1535249121.1,52592,18.75,73642.5,4.91,3.97,4.01,0,*70
1535249122.35,52593,18.75,73638.8,4.91,3.97,3.97,0,*79
1535249123.57,52594,18.75,73638.5,4.91,3.97,3.85,0,*7D
1535249124.74,52595,18.75,73636.8,4.89,3.93,3.85,0,*71
1535249125.98,52596,18.75,73640.0,4.91,3.97,3.97,0,*7C
1535249127.23,52597,18.75,73638.3,4.91,3.97,3.97,0,*7D
1535249128.41,52598,18.75,73636.3,4.89,3.85,3.93,0,*7C
1535249129.65,52599,18.75,73638.3,4.91,4.01,4.01,0,*73
1535249130.88,52600,18.75,73636.8,4.91,3.89,3.97,0,*7F
1535249132.05,52601,18.75,73638.8,4.89,3.85,3.93,0,*7F
1535249133.23,52602,18.75,73638.8,4.89,3.93,3.93,0,*7B
1535249134.41,52603,18.75,73638.5,4.89,3.93,3.93,0,*7A
1535249135.63,52604,18.75,73636.8,4.89,3.97,3.97,0,*7D
1535249136.85,52605,18.75,73640.0,4.89,3.97,3.97,0,*7C
1535249138.07,52606,18.75,73636.0,4.89,3.97,3.97,0,*7F
1535249139.24,52607,18.75,73642.8,4.89,3.93,3.93,0,*7E
1535249140.46,52608,18.75,73636.3,4.89,3.97,3.97,0,*71
1535249141.69,52609,18.75,73640.0,4.89,3.97,4.05,0,*7C
1535249142.91,52610,18.75,73634.0,4.89,3.97,4.05,0,*74
1535249144.14,52611,18.75,73638.5,4.89,4.05,4.05,0,*79
1535249145.34,52612,18.75,73634.3,4.89,3.97,3.93,0,*7E
1535249146.54,52613,18.75,73638.3,4.87,3.93,3.93,0,*75
1535249147.77,52614,18.75,73632.0,4.87,4.01,3.93,0,*7E
1535249148.98,52615,18.75,73632.8,4.87,3.93,3.93,0,*73
1535249150.19,52616,18.75,73636.3,4.87,3.93,3.93,0,*70
1535249151.4,52617,18.75,73632.3,4.87,3.89,3.89,0,*71
1535249152.61,52618,18.75,73634.3,4.87,3.93,3.89,0,*75
1535249153.82,52619,18.75,73632.3,4.87,3.93,3.89,0,*74
1535249155.03,52620,18.75,73632.8,4.87,3.93,3.89,0,*7E
1535249156.24,52621,18.75,73632.8,4.87,3.81,3.89,0,*7C
1535249157.44,52622,18.75,73636.3,4.87,3.89,3.89,0,*77
1535249158.66,52623,18.75,73636.5,4.87,3.89,3.81,0,*7E
1535249159.86,52624,18.75,73634.8,4.87,3.81,3.89,0,*79
1535249161.07,52625,18.75,73636.3,4.87,3.93,3.93,0,*70
1535249162.27,52626,18.75,73638.0,4.85,3.93,4.01,0,*7D
1535249163.45,52627,18.75,73636.0,4.85,3.93,3.93,0,*70
1535249164.63,52628,18.75,73638.8,4.85,3.81,3.89,0,*77
1535249165.82,52629,18.75,73632.5,4.85,3.93,3.93,0,*7E
1535249167.0,52630,18.75,73638.3,4.85,3.89,3.89,0,*76
1535249168.18,52631,18.75,73642.0,4.85,3.89,3.93,0,*7C
1535249169.38,52632,18.75,73638.3,4.85,3.89,4.01,0,*73
1535249170.58,52633,18.75,73636.3,4.85,4.01,3.93,0,*79
1535249171.79,52634,18.75,73638.3,4.87,3.89,3.93,0,*7B
1535249173.02,52635,18.75,73638.3,4.85,4.01,4.01,0,*73
1535249174.22,52636,18.75,73638.5,4.85,4.01,3.93,0,*7C
1535249175.42,52637,18.75,73638.0,4.85,3.93,4.01,0,*7D
1535249176.62,52638,18.75,73640.0,4.85,3.93,4.01,0,*72
1535249177.82,52639,18.75,73636.3,4.85,4.01,3.93,0,*73
1535249179.02,52640,18.75,73632.5,4.81,3.89,3.97,0,*7A
1535249180.21,52641,18.75,73642.0,4.81,3.89,3.89,0,*74
1535249181.43,52642,18.75,73636.5,4.85,4.01,4.01,0,*73
1535249182.66,52643,18.75,73640.8,4.85,4.05,4.01,0,*76
1535249183.83,52644,18.75,73638.3,4.85,4.11,4.11,0,*75
1535249185.05,52645,18.75,73642.5,4.85,4.01,4.01,0,*74
1535249186.27,52646,18.75,73642.5,4.85,4.01,4.01,0,*77
1535249187.51,52647,18.75,73642.5,4.85,4.05,4.05,0,*76
1535249188.71,52648,18.75,73642.8,4.85,4.05,3.93,0,*71
1535249189.9,52649,18.75,73642.3,4.85,3.93,3.93,0,*78
1535249191.08,52650,18.75,73638.3,4.85,3.93,3.93,0,*70
1535249192.25,52651,18.75,73640.0,4.81,3.85,3.85,0,*75
1535249193.42,52652,18.75,73642.0,4.81,3.85,3.85,0,*76
1535249194.65,52653,18.75,73640.8,4.79,3.85,3.79,0,*73
1535249195.88,52654,18.75,73638.5,4.81,3.79,3.79,0,*70
1535249197.13,52655,18.75,73642.5,4.79,3.79,3.79,0,*76
1535249198.33,52656,18.75,73636.3,4.79,3.85,3.85,0,*75
1535249199.51,52657,18.75,73640.3,4.81,3.89,3.85,0,*7F
1535249200.71,52658,18.75,73640.5,4.79,3.85,3.85,0,*7B
1535249201.91,52659,18.75,73642.0,4.79,3.85,3.85,0,*7A
1535249203.11,52660,18.75,73642.0,4.81,3.89,3.97,0,*78
1535249204.36,52661,18.75,73638.0,4.79,3.97,3.97,0,*71
1535249205.57,52662,18.75,73638.8,4.79,3.89,3.89,0,*72
1535249206.78,52663,18.75,73640.3,4.79,3.85,3.89,0,*7F
1535249207.99,52664,18.75,73640.0,4.79,3.89,3.89,0,*74
1535249209.2,52665,18.75,73640.5,4.79,3.89,3.89,0,*75
1535249210.41,52666,18.75,73642.3,4.79,3.85,3.89,0,*7A
1535249211.59,52667,18.75,73642.5,4.81,3.89,3.89,0,*70
1535249212.82,52668,18.75,73640.5,4.79,3.97,3.89,0,*77
1535249214.03,52669,18.75,73638.5,4.79,3.89,3.89,0,*79
1535249215.28,52670,18.75,73640.5,4.79,3.97,3.97,0,*71
1535249216.53,52671,18.75,73638.3,4.79,3.97,3.97,0,*70
1535249217.71,52672,18.75,73638.8,4.77,3.93,3.93,0,*7D
1535249218.94,52673,18.75,73640.3,4.77,4.05,3.97,0,*70
1535249220.12,52674,18.75,73640.3,4.77,3.85,3.85,0,*7B
1535249221.3,52675,18.75,73642.0,4.77,3.85,3.85,0,*7A
1535249222.47,52676,18.75,73642.0,4.77,3.85,3.85,0,*79
1535249223.65,52677,18.75,73642.5,4.77,3.85,3.85,0,*78
1535249224.83,52678,18.75,73642.3,4.77,3.93,3.93,0,*77
1535249226.04,52679,18.75,73642.5,4.77,3.97,3.93,0,*72
1535249227.22,52680,18.75,73642.3,4.77,3.85,3.93,0,*77
1535249228.4,52681,18.75,73638.8,4.77,3.81,3.81,0,*71
1535249229.64,52682,18.75,73638.8,4.77,3.79,3.79,0,*72
1535249230.82,52683,18.75,73642.3,4.77,3.81,3.81,0,*73
1535249232.0,52684,18.75,73638.8,4.77,3.81,3.81,0,*74
1535249233.26,52685,18.75,73632.3,4.75,3.71,3.71,0,*77
1535249234.43,52686,18.75,73636.8,4.77,3.81,3.85,0,*72
1535249235.61,52687,18.75,73636.3,4.77,3.81,3.81,0,*77
1535249236.87,52688,18.75,73638.3,4.75,3.71,3.71,0,*7A
1535249238.13,52689,18.75,73636.5,4.75,3.71,3.71,0,*7B
1535249239.34,52690,18.75,73640.8,4.77,3.75,3.81,0,*7A
1535249240.57,52691,18.75,73638.8,4.73,3.79,3.79,0,*74
1535249241.8,52692,18.75,73638.0,4.75,3.79,3.81,0,*76
1535249243.05,52693,18.75,73642.0,4.75,3.79,3.79,0,*70
1535249244.31,52694,18.75,73636.8,4.75,3.79,3.71,0,*7F
1535249245.57,52695,18.75,73636.3,4.75,3.79,3.71,0,*7E
1535249246.82,52696,18.75,73640.5,4.75,3.79,3.79,0,*75
1535249248.03,52697,18.75,73636.8,4.75,3.81,3.81,0,*74
1535249249.24,52698,18.75,73640.0,4.75,3.89,3.81,0,*73
1535249250.46,52699,18.75,73636.8,4.75,3.81,3.79,0,*7D
1535249251.67,52700,18.75,73636.3,4.75,3.89,3.81,0,*73
1535249252.88,52701,18.75,73638.5,4.75,3.89,3.81,0,*72
1535249254.09,52702,18.75,73638.5,4.75,3.89,3.89,0,*79
1535249255.27,52703,18.75,73638.0,4.73,3.81,3.89,0,*76
1535249256.45,52704,18.75,73636.3,4.73,3.81,3.89,0,*71
1535249257.63,52705,18.75,73638.0,4.73,3.81,3.89,0,*70
1535249258.81,52706,18.75,73636.8,4.73,3.93,3.81,0,*78
1535249259.99,52707,18.75,73640.5,4.73,3.93,3.89,0,*71
1535249261.17,52708,18.75,73638.0,4.73,3.81,3.93,0,*76
1535249262.35,52709,18.75,73634.0,4.73,3.81,3.81,0,*74
1535249263.55,52710,18.75,73636.0,4.73,3.81,3.79,0,*7B
1535249264.78,52711,18.75,73632.3,4.73,3.79,3.79,0,*7D
1535249265.96,52712,18.75,73636.3,4.73,3.81,3.81,0,*7E
1535249267.14,52713,18.75,73636.8,4.73,3.89,3.81,0,*77
1535249268.32,52714,18.75,73638.0,4.73,3.81,3.81,0,*78
1535249269.5,52715,18.75,73636.8,4.73,3.81,3.89,0,*71
1535249270.68,52716,18.75,73636.0,4.73,3.89,3.89,0,*7A
1535249271.86,52717,18.75,73634.5,4.73,3.81,3.89,0,*73
1535249273.04,52718,18.75,73634.5,4.73,3.81,3.89,0,*7C
1535249274.23,52719,18.75,73634.5,4.73,3.89,3.89,0,*75
1535249275.41,52720,18.75,73638.0,4.73,3.93,3.89,0,*74
1535249276.59,52721,18.75,73638.8,4.73,3.89,3.89,0,*7E
1535249277.78,52722,18.75,73640.5,4.73,3.89,3.89,0,*7D
1535249278.95,52723,18.75,73642.8,4.73,3.81,3.81,0,*7C
1535249280.14,52724,18.75,73642.3,4.73,3.81,3.89,0,*73
1535249281.31,52725,18.75,73640.5,4.73,3.81,3.89,0,*72
1535249282.5,52726,18.75,73642.8,4.73,3.89,3.89,0,*79
1535249283.7,52727,18.75,73642.0,4.73,4.01,3.93,0,*74
1535249284.92,52728,18.75,73642.8,4.73,4.01,4.01,0,*77
1535249286.1,52729,18.75,73642.5,4.73,3.93,3.93,0,*76
1535249287.32,52730,18.75,73638.8,4.73,4.01,4.01,0,*7E
1535249288.55,52731,18.75,73642.0,4.73,4.01,4.01,0,*7F
1535249289.77,52732,18.75,73642.0,4.73,4.01,4.01,0,*7C
1535249290.99,52733,18.75,73640.3,4.73,4.01,4.01,0,*7D
1535249292.19,52734,18.75,73642.8,4.73,3.93,4.01,0,*76
1535249293.37,52735,18.75,73640.8,4.73,3.93,3.93,0,*7B
1535249294.55,52736,18.75,73644.3,4.73,3.93,3.81,0,*7B
1535249295.74,52737,18.75,73646.0,4.73,3.89,3.89,0,*79
1535249296.92,52738,18.75,73644.0,4.73,3.81,3.93,0,*75
1535249298.1,52739,18.75,73642.0,4.73,3.89,3.89,0,*77
1535249299.28,52740,18.75,73642.0,4.73,3.89,3.89,0,*79
1535249300.47,52741,18.75,73640.8,4.73,3.93,3.93,0,*78
1535249301.65,52742,18.75,73642.3,4.73,3.93,3.93,0,*7B
1535249302.83,52743,18.75,73636.3,4.73,3.93,3.93,0,*7A
1535249304.01,52744,18.75,73640.5,4.73,3.89,3.93,0,*76
1535249305.2,52745,18.75,73642.8,4.73,3.89,3.93,0,*77
1535249306.4,52746,18.75,73638.8,4.73,4.01,3.93,0,*73
1535249307.58,52747,18.75,73636.5,4.73,3.93,3.93,0,*7E
1535249308.76,52748,18.75,73638.3,4.73,3.93,3.93,0,*71
1535249309.94,52749,18.75,73642.8,4.73,3.89,3.93,0,*7B
1535249311.12,52750,18.75,73636.3,4.73,3.81,3.89,0,*70
1535249312.31,52751,18.75,73642.0,4.73,3.89,3.81,0,*71
1535249313.49,52752,18.75,73638.3,4.73,3.89,3.81,0,*72
1535249314.67,52753,18.75,73638.5,4.73,3.89,3.89,0,*7B
1535249315.86,52754,18.75,73638.0,4.73,3.93,3.89,0,*77
1535249317.04,52755,18.75,73638.0,4.73,3.81,3.81,0,*7D
1535249318.21,52756,18.75,73638.0,4.69,3.85,3.85,0,*75
1535249319.39,52757,18.75,73636.8,4.73,3.89,3.89,0,*7F
1535249320.57,52758,18.75,73632.8,4.73,3.89,3.89,0,*70
1535249321.76,52759,18.75,73636.0,4.73,3.89,3.89,0,*71
1535249322.96,52760,18.75,73634.5,4.69,3.85,3.79,0,*73
1535249324.13,52761,18.75,73636.8,4.69,3.85,3.85,0,*71
1535249325.36,52762,18.75,73638.0,4.69,3.79,3.79,0,*72